Regional Weather Roundup
Issued by NWS

Home | Current Version | Previous Version | Graphics & Text | Print | Product List | Glossary On
Versions: 1 2 3 4 5 6 7 8 9 10 11 12 13 14 15 16 17 18 19 20 21 22 23 24 25 26 27 28 29 30 31 32 33 34 35 36 37 38 39 40 41 42 43 44 45 46 47 48 49 50
000
ASUS43 KOAX 220102
RWRNE

WEATHER ROUNDUP FOR NEBRASKA
NATIONAL WEATHER SERVICE OMAHA NE
800 PM CDT THU AUG 21 2014

NOTES: SATELLITE DATA IS BEING USED TO AUGMENT CLOUD COVER ABOVE
       12000 FEET.
       "FAIR" INDICATES FEW OR NO CLOUDS BELOW 12,000 FEET WITH NO
       SIGNIFICANT WEATHER AND/OR OBSTRUCTIONS TO VISIBILITY.

  * THESE STATIONS DO NOT REPORT WEATHER SUCH AS RAIN...SNOW OR FOG.

NEZ001>004-019>022-054>056-220200-
NEBRASKA PANHANDLE

CITY           SKY/WX    TMP DP  RH WIND       PRES   REMARKS
SCOTTSBLUFF    MOCLDY    84  48  28 S7        29.98F
ALLIANCE       MOCLDY    85  48  27 S9        29.98S
CHADRON        PTCLDY    84  53  34 SE13      29.92S
KIMBALL        MOCLDY    79  46  30 N9        30.06R
SIDNEY         PTCLDY    82  50  32 NE6       30.03S
$$

NEZ057>060-069>072-079>082-220200-
SOUTHWEST NEBRASKA

CITY           SKY/WX    TMP DP  RH WIND       PRES   REMARKS
NORTH PLATTE   PTCLDY    81  62  52 NE7       29.92S
IMPERIAL       CLEAR     89  52  28 CALM      29.95S
LEXINGTON      CLEAR     82  73  75 E6        29.89R
MCCOOK         CLEAR     90  53  28 CALM      29.89S
OGALLALA       PTCLDY    83  57  40 SE3       29.95R
$$

NEZ005>010-023>029-035>040-094-220200-
NORTH CENTRAL NEBRASKA

CITY           SKY/WX    TMP DP  RH WIND       PRES   REMARKS
VALENTINE      PTCLDY    85  57  38 N7        29.93S
AINSWORTH      CLEAR     78  65  64 NE6       29.94R
BROKEN BOW     CLEAR     80  69  69 N5        29.91S
O`NEILL        CLEAR     81  68  66 NE5       29.90S
ORD            CLEAR     82  69  64 N5        29.86S
THEDFORD       CLEAR     81  63  54 E5        29.95S
$$

NEZ041-046>049-061>064-073>077-083>087-220200-
SOUTH CENTRAL NEBRASKA

CITY           SKY/WX    TMP DP  RH WIND       PRES   REMARKS
GRAND ISLAND   CLEAR     83  75  77 NE5       29.87R HX  90
AURORA         PTCLDY    83  78  83 CALM      29.87R THUNDER HX  93
HASTINGS       PTCLDY    82  73  74 E5        29.87R
HEBRON         CLOUDY    78  71  77 CALM      29.84R THUNDER
HOLDREGE       CLEAR     82  74  77 CALM      29.88R
KEARNEY *      CLEAR     82  73  74 N7        29.88R
YORK           MOCLDY    82 N/A N/A E3        29.87R
$$

NEZ011>018-030>034-042>045-220200-
NORTHEAST NEBRASKA

CITY           SKY/WX    TMP DP  RH WIND       PRES   REMARKS
NORFOLK        PTCLDY    85  72  65 N10       29.85R HX  91
ALBION         CLEAR     83  71  66 N6        29.86S
BLAIR          CLEAR     86  72  62 CALM      29.84S HX  92
FREMONT        CLEAR     86  71  59 CALM      29.84S HX  91
TEKAMAH        CLEAR     85  76  74 S3        29.82S HX  94
WAYNE          CLEAR     82  78  87 CALM      29.85S HX  91
$$

NEZ050>053-065>068-078-088>093-220200-
SOUTHEAST NEBRASKA

CITY           SKY/WX    TMP DP  RH WIND       PRES   REMARKS
LINCOLN        CLEAR     86  73  65 NE6       29.84R HX  93
OMAHA EPPLEY   PTCLDY    88  73  61 E6        29.83R HX  95
BEATRICE       PTCLDY    83  77  81 E7        29.82F HX  93
FALLS CITY     PTCLDY    90  73  57 S7        29.81R HX  98
NEBRASKA CITY  CLEAR     81  76  85 NE7       29.84R
PLATTSMOUTH    CLEAR     83  75  76 E5        29.84S HX  91
$$

NEZ044-045-051>053-067-220200-
OMAHA AREA

CITY           SKY/WX    TMP DP  RH WIND       PRES   REMARKS
OMAHA EPPLEY   PTCLDY    88  73  61 E6        29.83R HX  95
BLAIR          CLEAR     86  72  62 CALM      29.84S HX  92
FREMONT        CLEAR     86  71  59 CALM      29.84S HX  91
MILLARD        CLEAR     85  74  69 SE3       29.83S HX  92
OFFUTT AFB     CLEAR     83  80  90 E6        29.83S HX  96
PLATTSMOUTH    CLEAR     83  75  76 E5        29.84S HX  91
WAHOO          FAIR      83  74  73 CALM      29.83S HX  90
$$


USA.gov is the U.S. government's official web portal to all federal, state and local government web resources and services.